Weather History for Burlington, NC

Change the Weather History Date:

Friday, October 5, 2012

  Actual Average Record
Temperature  
Mean Temperature 66 °F -  
Max Temperature 80 °F 76 °F 96 °F (1954)
Min Temperature 53 °F 50 °F 33 °F (1974)
Cooling Degree Days 1    
Growing Degree Days 16 (Base 50)    
Moisture  
Dew Point 56 °F    
Average Humidity 76    
Maximum Humidity 100    
Minimum Humidity 42    
Precipitation  
Precipitation 0.01 in - - ()
Sea Level Pressure  
Sea Level Pressure 30.12 in    
Wind  
Wind Speed 1 mph (WSW)    
Max Wind Speed 6 mph    
Max Gust Speed -    
Visibility 9 miles    
Events      
Averages and records for this station are not official NWS values.
T = Trace of Precipitation, MM = Missing Value Source: NWS Daily Summary

Daily Weather History Graph

Daily Weather History Graph

Search for Another Location

Airport:

Trip Planner

Search our weather history database for the weather conditions in past years. The results will help you decide how hot, cold, wet, or windy it might be!

Date:

Astronomy

Oct. 05, 2012 Rise Set
Actual Time 7:16 AM EDT 6:55 PM EDT
Civil Twilight 6:50 AM EDT 7:20 PM EDT
Nautical Twilight 6:21 AM EDT 7:50 PM EDT
Astronomical Twilight 5:51 AM EDT 8:20 PM EDT
Moon 10:25 PM EDT (10/5) 12:14 PM EDT (10/5)
Length of Visible Light 12h 29m
Length of Day
11h 38m
Waning Gibbous, 74% of the Moon is Illuminated
Oct 5
Waning Gibbous
Oct 8
Last Quarter
Oct 15
New
Oct 21
First Quarter
Oct 29
Full

Hourly Weather History & Observations

Time (EDT) Temp. Dew Point Humidity Pressure Visibility Wind Dir Wind Speed Gust Speed Precip Events Conditions
12:54 AM 63.0 °F 60.1 °F 90% 30.18 in 10.0 mi Calm Calm - N/A   Clear
1:54 AM 61.0 °F 59.0 °F 93% 30.17 in 10.0 mi Calm Calm - N/A   Clear
2:54 AM 60.1 °F 57.9 °F 93% 30.16 in 10.0 mi Calm Calm - 0.01 in   Clear
3:54 AM 57.9 °F 55.9 °F 93% 30.16 in 8.0 mi Calm Calm - N/A   Clear
4:54 AM 57.9 °F 55.9 °F 93% 30.17 in 7.0 mi Calm Calm - N/A   Clear
5:54 AM 57.0 °F 55.0 °F 93% 30.17 in 10.0 mi Calm Calm - N/A   Clear
6:54 AM 54.0 °F 53.1 °F 97% 30.17 in 5.0 mi Calm Calm - N/A   Clear
7:03 AM 53.6 °F 53.6 °F 100% 30.18 in 2.0 mi Calm Calm - N/A   Clear
7:13 AM 55.4 °F 53.6 °F 94% 30.18 in 6.0 mi Calm Calm - N/A   Clear
7:54 AM 55.0 °F 54.0 °F 96% 30.18 in 6.0 mi Calm Calm - N/A   Clear
8:54 AM 60.1 °F 57.0 °F 90% 30.19 in 10.0 mi WSW 3.5 mph - N/A   Clear
9:54 AM 69.1 °F 59.0 °F 70% 30.19 in 10.0 mi WNW 4.6 mph - N/A   Clear
10:54 AM 73.9 °F 57.0 °F 55% 30.18 in 10.0 mi NNW 5.8 mph - N/A   Clear
11:54 AM 75.9 °F 57.0 °F 52% 30.15 in 10.0 mi Variable 3.5 mph - N/A   Clear
12:54 PM 77.0 °F 54.0 °F 45% 30.13 in 10.0 mi Calm Calm - N/A   Clear
1:54 PM 78.1 °F 53.1 °F 42% 30.10 in 10.0 mi SSW 4.6 mph - N/A   Clear
2:54 PM 78.1 °F 54.0 °F 43% 30.08 in 10.0 mi Calm Calm - N/A   Clear
3:54 PM 79.0 °F 54.0 °F 42% 30.06 in 10.0 mi WSW 4.6 mph - N/A   Clear
4:54 PM 79.0 °F 54.0 °F 42% 30.04 in 10.0 mi SSW 4.6 mph - N/A   Clear
5:54 PM 77.0 °F 55.0 °F 47% 30.03 in 10.0 mi Calm Calm - N/A   Clear
6:54 PM 71.1 °F 57.9 °F 63% 30.03 in 10.0 mi Calm Calm - N/A   Clear
7:54 PM 64.9 °F 59.0 °F 81% 30.04 in 10.0 mi Calm Calm - N/A   Clear
8:54 PM 63.0 °F 59.0 °F 87% 30.04 in 10.0 mi Calm Calm - N/A   Clear
9:54 PM 61.0 °F 59.0 °F 93% 30.03 in 9.0 mi Calm Calm - N/A   Clear
10:54 PM 60.1 °F 57.9 °F 93% 30.03 in 8.0 mi Calm Calm - N/A   Clear
11:54 PM 59.0 °F 57.9 °F 96% 30.02 in 8.0 mi Calm Calm - N/A   Mostly Cloudy